Weather in Danilkino

Russia / Saratov Oblast     51°16′11″N   43°05′56″E
temp.,
°C
wind,
m/s
gust,
m/s
humid.,
%
clouds,
%
prec.,
mm/h
press.,
hPa
HPBL,
m
29 june, wed
wed2901:00+14ne410690 0.0 1018217
04:00+12ene35800 0.0 101992
07:00+14ene23740 0.0 1020139
10:00+18ne33570 0.0 1020998
13:00+21ne444726 0.0 10192019
16:00+21nne54431 0.0 10192048
19:00+20nne45540 0.0 1019919
22:00+14ne35690 0.0 101972
30 june, thu
thu3001:00+12ene22740 0.0 101921
04:00+11ne12780 0.0 101910
07:00+14n12730 0.0 1019106
10:00+18n23540 0.0 10181038
13:00+21nnw344681 0.0 10171932
16:00+20nnw3557100 0.0 1016466
19:00+19wnw1164100 0.0 101511
22:00+18wsw345927 0.0 101582
1 july, fri
fri101:00+16nw3569100 0.0 1014117
04:00+13nw347599 0.0 101459
07:00+15nw47785 0.0 1013188
10:00+18nnw686260 0.0 1013683
13:00+20n795068 0.2 10132127
16:00+19n910423 0.2 10142439
19:00+15nne7115545 0.0 10161172
22:00+11nnw47725 0.0 1017128
2 july, sat
sat201:00+9nw412765 0.0 1017317
04:00+10nnw715720 0.0 1016420
07:00+12nnw816695 0.0 1016653
10:00+17n913545 0.0 10161383
13:00+20n911455 0.0 10151922
16:00+21n810421 0.0 10142091
19:00+20nnw59535 0.0 10141423
22:00+15nw4571100 0.0 101562
3 july, sun
sun301:00+14nnw33765 0.0 101434
04:00+14w348290 0.0 101365
07:00+15w247997 0.0 1013113
10:00+20nw337139 0.1 1012791
13:00+24n34545 0.0 10121520
16:00+25nw444899 0.1 10111783
19:00+23nnw566895 0.6 1012699
22:00+18n49871 0.8 1013196